Location: Hilton Head Island
(32.2163°N, 80.7526°W)
Time: 21:17:26
(UTC-04:00)

Tiros 1 despin weight - Pass Details

Date: 24 February 2026
Orbit: 556 x 593 km, 48.2° (Epoch: 10 March)

Event Time Altitude Azimuth Distance (km) Brightness Sun altitude
Rises 13:45:57 0° 277° (W) 2,756 ? 45.3°
Reaches altitude 10° 13:48:59 10° 300° (WNW) 1,853 ? 45.0°
Maximum altitude 13:51:36 16° 338° (NNW) 1,509 ? 44.8°
Drops below altitude 10° 13:54:13 10° 17° (NNE) 1,844 ? 44.5°
Sets 13:57:14 0° 40° (NE) 2,736 ? 44.2°
